Flag for Uruguay Weather past 2 weeks in Montevideo, Uruguay

Now
59 °F

Fog.


Feels Like: 59 °F
Forecast: 54 / 62 °F
Wind: No wind

Location: Carrasco

Current Time: Aug 1, 2014 at 4:53:39 AM

Latest Report: Aug 1, 2014 at 4:00 AM


Visibility: 0 mi

Pressure: 29.83 "Hg

Humidity: 100%

Dew point: 59 °F

Location of MontevideoLocation

Historic Weather in Montevideo — Graph

°F

Montevideo temperature yesterday

Maximum temperature yesterday: 72 °F (at 2:00 PM)
Minimum temperature yesterday: 52 °F (at 12:00 AM)
Average temperature yesterday: 59 °F

Past Weeks' High & Low Weather Summary

 TemperatureHumidityPressure
High72 °F (Jul 31, 2:00 PM)100% (Jul 18, 6:00 AM)30.42 "Hg (Jul 18, 6:00 AM)
Low32 °F (Jul 27, 7:00 AM)31% (Jul 25, 3:00 PM)29.74 "Hg (Jul 22, 1:42 PM)
Average52 °F76%30.10 "Hg
* Reported Jul 17 4:00 AM — Aug 1 4:00 AM, Montevideo, Weather by CustomWeather, © 2014

Note: Actual official high and low records may vary slightly from our data, if they occured in-between our weather recording intervals... More about our weather records

Advertising

Montevideo weather history for previous 24 hours

 ConditionsComfort  
Time TempWeatherWind HumidityBarometerVisibility
4:00 AM
Aug 1
59 °FFog.No wind100%29.83 "Hg1 mi
3:00 AM61 °FFog.No wind100%29.83 "Hg1 mi
2:00 AM61 °FFog.3 mph100%29.83 "Hg0 mi
1:00 AM61 °FRain. Fog.No wind94%29.86 "Hg1 mi
12:00 AM59 °FFog.2 mph100%29.86 "Hg1 mi
11:00 PM
Jul 31
59 °FFog.3 mph100%29.86 "Hg1 mi
10:00 PM59 °FFog.5 mph100%29.86 "Hg2 mi
9:00 PM59 °FDrizzle. Mostly cloudy.No wind100%29.86 "Hg1 mi
8:00 PM59 °FDrizzle. Mostly cloudy.No wind100%29.86 "Hg1 mi
7:00 PM61 °FDrizzle. Mostly cloudy.10 mph88%29.86 "HgN/A
6:00 PM68 °FMostly cloudy.8 mph78%29.86 "HgN/A
5:00 PM70 °FPartly sunny.10 mph78%29.86 "HgN/A
4:00 PM70 °FScattered clouds.13 mph73%29.83 "HgN/A
3:00 PM70 °FBroken clouds.17 mph73%29.83 "HgN/A
2:00 PM72 °FBroken clouds.17 mph69%29.86 "HgN/A
1:00 PM66 °FBroken clouds.15 mph83%29.92 "HgN/A
12:00 PM63 °FMore clouds than sun.13 mph88%29.95 "HgN/A
11:00 AM61 °FMore clouds than sun.13 mph83%29.98 "HgN/A
10:00 AM55 °FMore clouds than sun.10 mph88%30.01 "HgN/A
9:00 AM54 °FMore clouds than sun.10 mph88%30.04 "Hg5 mi
8:00 AM52 °FMore clouds than sun.6 mph88%30.04 "HgN/A
7:00 AM54 °FBroken clouds.6 mph72%30.04 "HgN/A
6:00 AM54 °FPartly cloudy.5 mph72%30.04 "HgN/A
5:00 AM52 °FPartly cloudy.3 mph82%30.04 "HgN/A
4:00 AM52 °FClear.7 mph88%30.04 "Hg10 mi
Weather by CustomWeather, © 2014

See weather overviewHow to use our weather pages